Ottumwa, IA

8:47 PM CDT on October 13, 2019 (GMT -0500)
Ottumwa Industrial

Weather History for KOTM - August, 2019

Change the Weather History Date:

Tuesday, August 6, 2019

  Actual Average Record
Temperature  
Mean Temperature 75 °F 74 °F  
Max Temperature 86 °F 85 °F 111 °F (1934)
Min Temperature 63 °F 64 °F 45 °F (1903)
Degree Days  
Heating Degree Days 0 0  
Month to date heating degree days 0 0  
Since 1 June heating degree days 4 23  
Since 1 July heating degree days 0 2  
Cooling Degree Days 10 9  
Month to date cooling degree days 51 56  
Year to date cooling degree days 698 635  
Since 1 June cooling degree days 635 571  
Growing Degree Days 24 (Base 50)    
Moisture  
Dew Point 65 °F    
Average Humidity 74    
Maximum Humidity 100    
Minimum Humidity 48    
Precipitation  
Precipitation 0.00 in 0.14 in 1.94 in (1924)
Month to date precipitation 0.14 0.85  
Year to date precipitation 26.66 22.94  
Sea Level Pressure  
Sea Level Pressure 29.87 in    
Wind  
Wind Speed 7 mph (NW)    
Max Wind Speed 15 mph    
Max Gust Speed 22 mph    
Visibility 9 miles    
Events Rain , Thunderstorm    
T = Trace of Precipitation, MM = Missing Value Source: NWS Daily Summary

Daily Weather History Graph

Daily Weather History Graph

Search for Another Location

Airport or City:

Astronomy

Aug. 06, 2019 Rise Set
Actual Time 6:10 AM CDT 8:20 PM CDT
Civil Twilight 5:39 AM CDT 8:50 PM CDT
Nautical Twilight 5:02 AM CDT 9:28 PM CDT
Astronomical Twilight 4:21 AM CDT 10:09 PM CDT
Moon 12:39 PM CDT (8/6) No Moon Set
Length of Visible Light 15h 11m
Length of Day
14h 10m
Waxing Crescent, 39% of the Moon is Illuminated
Aug 6
Waxing Crescent
Aug 7
First Quarter
Aug 15
Full
Aug 23
Last Quarter
Aug 30
New

Hourly Weather History & Observations

Time (CDT) Temp. Heat Index Dew Point Humidity Pressure Visibility Wind Dir Wind Speed Gust Speed Precip Events Conditions
12:07 AM 73.9 °F - 61.0 °F 64% 29.92 in 9.0 mi NNW 34.5 mph 46.0 mph N/A Thunderstorm Overcast
12:18 AM 66.9 °F - 64.0 °F 90% 29.89 in 2.0 mi North 18.4 mph 49.5 mph 0.14 in Rain , Thunderstorm Rain
12:27 AM 66.9 °F - 64.0 °F 90% 29.87 in 8.0 mi NNE 10.4 mph 26.5 mph 0.14 in Rain , Thunderstorm Light Rain
12:53 AM 66.9 °F - 64.0 °F 90% 29.85 in 10.0 mi South 4.6 mph - 0.14 in Thunderstorm Partly Cloudy
1:00 AM 66.9 °F - 64.0 °F 90% 29.86 in 10.0 mi SSW 4.6 mph - N/A   Partly Cloudy
1:53 AM 66.9 °F - 64.0 °F 90% 29.85 in 10.0 mi Calm Calm - N/A   Partly Cloudy
2:53 AM 66.0 °F - 66.0 °F 100% 29.85 in 10.0 mi South 4.6 mph - N/A   Scattered Clouds
3:53 AM 66.0 °F - 66.0 °F 100% 29.85 in 10.0 mi SSE 3.5 mph - N/A   Partly Cloudy
4:53 AM 66.0 °F - 66.0 °F 100% 29.84 in 10.0 mi Calm Calm - N/A   Scattered Clouds
5:41 AM 64.9 °F - 64.9 °F 100% 29.87 in 10.0 mi Calm Calm - N/A   Mostly Cloudy
5:53 AM 64.9 °F - 64.9 °F 100% 29.85 in 10.0 mi SW 3.5 mph - N/A   Overcast
6:04 AM 64.0 °F - 64.0 °F 100% 29.87 in 10.0 mi WSW 3.5 mph - N/A   Mostly Cloudy
6:20 AM 64.0 °F - 64.0 °F 100% 29.87 in 7.0 mi Calm Calm - N/A   Mostly Cloudy
6:53 AM 64.9 °F - 64.9 °F 100% 29.86 in 5.0 mi WNW 3.5 mph - N/A   Partly Cloudy
7:53 AM 68.0 °F - 66.9 °F 96% 29.86 in 10.0 mi WNW 4.6 mph - N/A   Clear
8:38 AM 71.1 °F - 66.9 °F 87% 29.89 in 10.0 mi NW 8.1 mph - N/A   Partly Cloudy
8:53 AM 71.1 °F - 66.0 °F 84% 29.87 in 10.0 mi NW 11.5 mph - N/A   Scattered Clouds
9:53 AM 69.1 °F - 66.0 °F 90% 29.88 in 6.0 mi NW 11.5 mph - N/A   Overcast
10:00 AM 69.1 °F - 66.0 °F 90% 29.90 in 6.0 mi NW 10.4 mph - N/A   Overcast
10:35 AM 72.0 °F - 66.0 °F 81% 29.91 in 10.0 mi NNW 9.2 mph - N/A   Overcast
10:53 AM 73.0 °F - 66.0 °F 79% 29.90 in 10.0 mi NNW 12.7 mph - N/A   Overcast
11:11 AM 73.9 °F - 66.9 °F 79% 29.92 in 10.0 mi NNW 11.5 mph - N/A   Overcast
11:53 AM 78.1 °F - 66.9 °F 68% 29.89 in 10.0 mi NNW 12.7 mph - N/A   Scattered Clouds
12:53 PM 81.0 °F 83.0 °F 66.0 °F 60% 29.89 in 10.0 mi NNW 11.5 mph 19.6 mph N/A   Scattered Clouds
1:53 PM 82.9 °F 84.4 °F 64.0 °F 53% 29.89 in 10.0 mi North 11.5 mph - N/A   Partly Cloudy
2:53 PM 84.9 °F 86.1 °F 64.0 °F 49% 29.87 in 10.0 mi North 9.2 mph - N/A   Partly Cloudy
3:53 PM 82.9 °F 84.4 °F 64.0 °F 53% 29.87 in 10.0 mi NNW 8.1 mph - N/A   Scattered Clouds
4:53 PM 84.9 °F 86.1 °F 64.0 °F 49% 29.86 in 10.0 mi NNW 8.1 mph - N/A   Scattered Clouds
5:53 PM 84.0 °F 84.9 °F 63.0 °F 49% 29.86 in 10.0 mi NNW 11.5 mph - N/A   Clear
6:53 PM 82.0 °F 83.4 °F 64.0 °F 54% 29.85 in 10.0 mi NNW 8.1 mph - N/A   Clear
7:53 PM 78.1 °F - 64.9 °F 64% 29.85 in 10.0 mi NNW 6.9 mph - N/A   Clear
8:53 PM 71.1 °F - 64.9 °F 81% 29.85 in 10.0 mi NNW 3.5 mph - N/A   Clear
9:53 PM 70.0 °F - 64.0 °F 81% 29.87 in 10.0 mi NNW 3.5 mph - N/A   Clear
10:53 PM 66.0 °F - 61.0 °F 84% 29.88 in 10.0 mi Calm Calm - N/A   Clear
11:53 PM 64.0 °F - 62.1 °F 93% 29.89 in 10.0 mi Calm Calm - N/A   Clear